OPS 4682 DEB, 38372

Orbit data source: Space-Track

OPS 4682 DEB, 38372 is space debris in LEO originally from a launch on Sat, 03 Apr 1965 UTC launched from the Air Force Western Test Range (AFWTR). Debris objects in space refer to the collection of defunct objects orbiting the Earth. Examples of debris include non-operational satellites, rocket bodies, and fragments generated from explosions, collisions, or faulty payload assembly.

Loading next visibility...
Identifier
38372, 1965-027BZ
Orbit
LEO
Country
Flag of USUS
Related business
Manufacturer
Unknown
Mission
Spacecraft
Bus & Motor
Unknown
Mass
Unknown
Launch date (UTC)
1965-04-03 (61 years ago)
Launch vehicle
Unknown
Launch site
Air Force Western Test Range (AFWTR)
Object type
Payload
Rocket body
Debris
Shape & HBR
Unknown shape, 0.1 m
Radar Cross Section
Medium (>0.1 m² and <1 m²)

Expand to show TLE details & history
Last TLE update: 2 days ago

TLE from 2 days ago
0 OPS 4682 DEB
1 38372U 65027BZ  26252.14501691 -.00000320  00000-0 -11166-2 0  9991
2 38372  90.3128  42.3425 0031406 172.5714 187.5878 12.97956588674369
Epoch: 2026-09-09T03:28Z
TLE epoch observation values (Epoch: 2026-09-09T03:28:49.461Z)
Latitude
-0.00006°
Longitude
1.93513°
Altitude
1,296.8 km
Speed
7.197 km/s
True Right ascension
02h 49m 22s
True Declination
0° 00' 00"
Sunlit
Object was in full shadow at epoch
Visualization orbit readout
Latitude
Unknown
Longitude
Unknown
Altitude
Unknown
Speed
Unknown
Apparent Right ascension
Unknown
Apparent Declination
Unknown
Sunlit
N/A
Visualization observer readout
Local Sidereal Time
15:12:34
Azimuth
Unknown
Elevation
Unknown
Doppler factor
Unknown
Orbital elements
Apogee altitude
1,291.244 km
Perigee altitude
1,243.222 km
Semi-major axis
7,645.37 km
Eccentricity
0.00314
Inclination
90.3128°
RAAN
42.3425°
Arg. of periapsis
172.5714°
True anomaly
187.54046°
Mean anomaly
187.5878°
Eccentric anomaly
187.56411°
Mean motion
3.24672 °/min
Orbital period
110.88 mins
BSTAR
-0.0011166
Loading maneuver chart data...
Computing Atmospheric mass density...
Loading historical data...
Loading historical data...
Loading historical data...
Loading historical data...
Loading historical data...
Loading historical data...
Loading historical data...

Documentation

Showing up to 5 results
|